星链-5443 (STARLINK-5443 )

导读 | 星芒AI

STARLINK-5443 是 SpaceX 星链(Starlink)卫星互联网项目中的一颗低轨通信卫星。它属于星链计划的第二批部署(5443号为卫星编号),旨在为全球用户提供高速互联网服务。该卫星运行在约 550 公里的近地轨道,采用先进的通信技术,支持宽带数据传输。星链项目通过大规模部署此类卫星,构建覆盖全球的卫星网络,尤其服务于偏远和网络基础设施薄弱的地区。STARLINK-5443 与其他星链卫星协同工作,提升网络连接的稳定性和覆盖范围。

基本信息
目录编号:
54781
目录名称:
STARLINK-5443
国际标识:
2022-175Z
轨道中心:
EARTH
卫星名称:
星链-5443
卫星全名:
星链-5443 (STARLINK-5443 )
卫星状态:
在轨 (已飞行1100 天)
发射日期:
2022-12-17 UTC
国别 :
美国 (US)
星等 :
--
轨道信息
数据来源 国际轨道数据
星历时间: 2025-12-20T15:08:19+0800
1天前
查看轨道信息
半长轴: 6917.877km
偏心率: 0.0001388
轨道倾角: 53.218°
近地点辐角 87.668°
升交点赤经 25.544°
平近点角 272.447°
近地点: 538.779km
远地点: 540.701km
周期: 95.437分钟
每日圈数: 15.088413
详细信息
固有亮度:
5
最大亮度:
2.5
卫星平台:
Starlink v1.5
覆盖范围:
全球
运营商:
太空探索技术公司
运营商所在国:
美国
制造商(研发单位):
太空探索技术公司
制造商所在国:
美国
使用方式:
暂无
卫星简介
星链(Starlink)计划是由太空探索技术公司(SpaceX)提出的一个巨型低轨卫星互联网星座项目,计划在2019年至2024年间在太空搭建由约1.2万颗卫星组成的“星链”网络,其中1584颗将部署在地球上空550千米处的近地轨道,并从2020年开始工作。该卫星仍在工作。
2D轨道图
3D轨道图
轨道高度分析图
轨道倾角分析图
轨道综合分析图
查看轨道综合分析图